Weather History for Rolla, MO

Change the Weather History Date:

Monday, April 29, 2013

  Actual Average Record
Temperature  
Mean Temperature 66 °F 59 °F  
Max Temperature 82 °F 70 °F 88 °F (1952)
Min Temperature 50 °F 48 °F 30 °F (2008)
Degree Days  
Heating Degree Days 0 7  
Month to date heating degree days 385 308  
Since 1 July heating degree days 4790 4712  
Cooling Degree Days 1 1  
Month to date cooling degree days 7 23  
Year to date cooling degree days 7 27  
Growing Degree Days 16 (Base 50)    
Moisture  
Dew Point 55 °F    
Average Humidity 67    
Maximum Humidity 89    
Minimum Humidity 45    
Precipitation  
Precipitation 0.00 in 0.16 in 2.25 in (1960)
Month to date precipitation 6.20 4.07  
Year to date precipitation 14.17 11.62  
Sea Level Pressure  
Sea Level Pressure 29.82 in    
Wind  
Wind Speed 11 mph (South)    
Max Wind Speed 18 mph    
Max Gust Speed 24 mph    
Visibility 10 miles    
Events      
T = Trace of Precipitation, MM = Missing Value Source: NWS Daily Summary

Daily Weather History Graph

Daily Weather History Graph

Search for Another Location

Airport:

Trip Planner

Search our weather history database for the weather conditions in past years. The results will help you decide how hot, cold, wet, or windy it might be!

Date:

Astronomy

Apr. 29, 2013 Rise Set
Actual Time 6:12 AM CDT 7:56 PM CDT
Civil Twilight 5:44 AM CDT 8:24 PM CDT
Nautical Twilight 5:10 AM CDT 8:59 PM CDT
Astronomical Twilight 4:34 AM CDT 9:35 PM CDT
Moon No Moon Rise 9:35 AM CDT (4/29)
Length of Visible Light 14h 40m
Length of Day
13h 43m
Waning Gibbous, 80% of the Moon is Illuminated
Apr 29
Waning Gibbous
May 2
Last Quarter
May 9
New
May 17
First Quarter
May 24
Full

Hourly Weather History & Observations

Time (CDT) Temp. Heat Index Dew Point Humidity Pressure Visibility Wind Dir Wind Speed Gust Speed Precip Events Conditions
12:53 AM 51.1 °F - 46.9 °F 86% 29.90 in 10.0 mi South 10.4 mph - N/A   Clear
1:53 AM 52.0 °F - 48.0 °F 86% 29.88 in 10.0 mi South 11.5 mph - N/A   Clear
2:53 AM 52.0 °F - 48.0 °F 86% 29.87 in 10.0 mi SSW 12.7 mph - N/A   Clear
3:53 AM 51.1 °F - 48.0 °F 89% 29.86 in 10.0 mi South 11.5 mph - N/A   Clear
4:53 AM 51.1 °F - 48.0 °F 89% 29.88 in 10.0 mi SSW 10.4 mph - N/A   Clear
5:53 AM 51.1 °F - 48.0 °F 89% 29.88 in 10.0 mi South 10.4 mph - N/A   Clear
6:53 AM 53.1 °F - 50.0 °F 89% 29.89 in 10.0 mi SSW 11.5 mph - N/A   Clear
7:53 AM 57.9 °F - 51.1 °F 78% 29.90 in 10.0 mi SSW 11.5 mph - N/A   Clear
8:53 AM 62.1 °F - 53.1 °F 72% 29.88 in 10.0 mi SW 13.8 mph - N/A   Clear
9:53 AM 66.0 °F - 55.9 °F 70% 29.88 in 10.0 mi SW 10.4 mph - N/A   Clear
10:53 AM 70.0 °F - 57.9 °F 65% 29.88 in 10.0 mi SSW 9.2 mph - N/A   Clear
11:53 AM 75.0 °F - 60.1 °F 60% 29.86 in 10.0 mi SW 9.2 mph - N/A   Clear
12:53 PM 77.0 °F - 59.0 °F 54% 29.83 in 10.0 mi North - - N/A   Unknown
1:53 PM 80.1 °F 80.4 °F 57.0 °F 45% 29.80 in - Variable 4.6 mph 16.1 mph N/A   Clear
2:53 PM 81.0 °F 81.1 °F 57.9 °F 45% 29.77 in 10.0 mi South 9.2 mph 21.9 mph N/A   Clear
3:53 PM 80.1 °F 80.7 °F 59.0 °F 48% 29.75 in 10.0 mi SE 9.2 mph - N/A   Partly Cloudy
4:53 PM 80.1 °F 80.6 °F 57.9 °F 47% 29.74 in 10.0 mi South 12.7 mph 18.4 mph N/A   Scattered Clouds
5:53 PM 79.0 °F - 59.0 °F 50% 29.74 in 10.0 mi South 10.4 mph - N/A   Partly Cloudy
6:53 PM 77.0 °F - 59.0 °F 54% 29.74 in 10.0 mi South 13.8 mph 20.7 mph N/A   Clear
7:53 PM 73.9 °F - 57.9 °F 57% 29.75 in 10.0 mi SSE 10.4 mph - N/A   Clear
8:53 PM 72.0 °F - 57.9 °F 61% 29.77 in 10.0 mi South 12.7 mph - N/A   Clear
9:53 PM 70.0 °F - 59.0 °F 68% 29.78 in 10.0 mi South 15.0 mph - N/A   Clear
10:53 PM 68.0 °F - 60.1 °F 76% 29.78 in 10.0 mi South 12.7 mph - N/A   Clear
11:53 PM 68.0 °F - 60.1 °F 76% 29.78 in 10.0 mi South 13.8 mph 23.0 mph N/A   Clear